www.pogodaiklimat.ru

Погода и климат >> Архив погоды >> Бенин >> Cotonou


ПОГОДА в Cotonou

  • Прогноз погоды в Cotonou
  • Монитор погоды в Cotonou
  • Климат города

АРХИВ ПОГОДЫ в Cotonou

Время (UTC), дата Ветер
(напр.,м/с)
 
Видим.   Явления Облачность Т
(С)
Тd
(С)
f
(%)
Тe
(С)
Тes
(С)
Комфортность P
(гПа)
Po
(гПа)
Тmin
(С)
Tmax
(С)
R
(мм)
R24
(мм)
S
(см)
15 14.10 ЮЗ 6 10 км 9/4 360 м
[Cb cap Ac cuf Ci sp]
+30.0 +26.1 80 +45 +47 опасность
перегрева
1009.5 1008.4
18 14.10 ЮЗ 6 10 км 9/4 360 м
[Cu Sc Ac trans Ci sp]
+28.5 +25.7 85 +42 +42 опасность
перегрева
1009.7 1008.6 +30.9
21 14.10 Ю 5 10 км 9/4 360 м
[Sc Ci sp]
+27.7 +25.3 87 +40 +40 очень
душно
1011.6 1010.5
00 15.10 ЮЗ 3 10 км 9/4 330 м
[Sc Ac trans Ci sp]
+27.4 +25.0 87 +39 +39 очень
душно
1012.1 1011.0
03 15.10 ЮЗ 4 10 км 9/5 330 м
[Sc Ac trans Ci sp]
+27.2 +24.9 87 +39 +39 очень
душно
1010.8 1009.7
06 15.10 Ю 3 8000 м 9/5 330 м
[Cb cap Ac cuf Ci sp]
+27.0 +24.1 84 +37 +37 очень
душно
1011.5 1010.4 +26.8
09 15.10 Ю 2 10 км гроза без осадков 9/6 360 м
[Cb cap Ac cuf Ci sp]
+28.4 +24.9 81 +41 +43 опасность
перегрева
1014.1 1013.0
12 15.10 ЮЗ 4 8000 м гроза без осадков {дождь} 9/5 360 м
[Cb cap Ac trans Ci sp]
+28.8 +25.3 81 +42 +46 опасность
перегрева
1012.5 1011.4 0.0
15 15.10 Ю 4 10 км в посл. час гроза 8/3 360 м
[Cb cap Ac trans Ci sp]
+30.5 +25.6 75 +45 +48 опасность
перегрева
1010.2 1009.1
18 15.10 ЮЗ 4 10 км {гроза} 8/3 360 м
[Cb cap Ac trans Ci sp]
+28.4 +24.4 79 +40 +40 очень
душно
1010.9 1009.8 +30.5 0.0
21 15.10 З 2 10 км 6/1 360 м
[Sc Ci sp]
+27.5 +25.0 86 +39 +39 очень
душно
1012.8 1011.7
00 16.10 СЗ 2 10 км 6/0 300 м
[Ci sp]
+26.2 +25.1 94 +38 +38 очень
душно
1012.7 1011.6
03 16.10 СЗ 2 8000 м 9/1 330 м
[Sc Ac trans Ci sp]
+25.8 +24.9 95 +37 +37 очень
душно
1011.3 1010.2
06 16.10 штиль 0 4500 м дымка 9/1 330 м
[Cb cap Ac trans Ci sp]
+25.1 +24.2 95 +35 +35 очень
душно
1012.5 1011.4 +25.0 0.0
09 16.10 ЮЗ 2 8000 м 9/4 360 м
[Cu Sc Ac trans Ci sp]
+29.2 +25.1 79 +42 +46 опасность
перегрева
1013.9 1012.8
12 16.10 Ю 4 6000 м гроза, ливневой дождь 10/8 330 м
[Cb cap Ac As]
+28.6 +24.2 77 +40 +41 очень
душно
1013.3 1012.2 0.0
15 16.10 В 2 7000 м гроза, ливневой дождь 10/6 330 м
[Cb cap Ac As]
+23.7 +22.7 94 +31 +32 очень
душно
1012.0 1010.9
18 16.10 СВ 2 4000 м дымка {гроза, дождь} 9/6 330 м
[Cu Sc Ac As Ci sp]
+24.5 +23.3 93 +33 +33 очень
душно
1011.0 1009.9 +30.0 11
21 16.10 С 1 4000 м дымка 9/5 330 м
[Sc Ac trans Ci sp]
+24.2 +23.0 93 +32 +32 очень
душно
1015.1 1014.0
00 17.10 С 2 8000 м в посл. час дождь 9/5 330 м
[Sc Ac As Ci sp]
+24.3 +23.7 96 +33 +33 очень
душно
1013.6 1012.5 0.1
03 17.10 СЗ 2 6000 м 9/3 330 м
[Sc Ac As Ci sp]
+23.6 +22.7 95 +31 +31 очень
душно
1012.1 1011.0
06 17.10 С 2 6000 м 9/1 330 м
[Cu Sc Ac trans Ci sp]
+23.5 +22.8 96 +31 +31 очень
душно
1012.2 1011.1 +23.1 11
09 17.10 С 2 10 км 8/1 330 м
[Cu Sc Ac trans Ci sp]
+28.1 +24.4 80 +39 +45 очень
душно
1013.1 1012.0
12 17.10 Ю 5 10 км 8/5 360 м
[Cb cap Ci sp]
+29.6 +24.7 75 +42 +47 опасность
перегрева
1011.5 1010.4
15 17.10 Ю 5 10 км 8/1 360 м
[Sc Ac trans Ci sp]
+29.7 +25.2 77 +43 +46 опасность
перегрева
1009.8 1008.7
18 17.10 ЮЗ 5 10 км 9/4 360 м
[Cb cap As op Ci ing]
+28.2 +24.8 82 +40 +40 очень
душно
1010.7 1009.6 +30.2
21 17.10 Ю 4 10 км зарница 8/3 330 м
[Cb cap Ci sp]
+28.0 +24.3 80 +39 +39 очень
душно
1013.1 1012.0
00 18.10 С 1 10 км 9/4 360 м
[Cu Sc Ac und Ci sp]
+27.6 +24.8 85 +39 +39 очень
душно
1012.5 1011.4
03 18.10 СЗ 2 8000 м 6/1 330 м
[Sc Ci sp]
+26.1 +25.0 94 +37 +37 очень
душно
1010.1 1009.0
06 18.10 штиль 0 7000 м 9/5 330 м
[Cb calv Ac trans Ci sp]
+25.0 +24.4 96 +35 +35 очень
душно
1010.9 1009.8 +24.8
09 18.10 ЮЗ 4 10 км 9/5 360 м
[Cu Sc Ac trans Ci sp]
+29.9 +25.3 76 +43 +46 опасность
перегрева
1012.2 1011.1
12 18.10 Ю 6 10 км 9/4 360 м
[Cu Sc Ac trans Ci sp]
+30.6 +25.1 73 +44 +47 опасность
перегрева
1010.9 1009.8
15 18.10 ЮЗ 6 10 км гроза без осадков 9/5 360 м
[Cb cap Ci sp]
+30.7 +25.4 73 +45 +46 опасность
перегрева
1008.5 1007.4
18 18.10 ЮЗ 6 10 км гроза без осадков 9/6 360 м
[Cb cap Ac cuf Ci sp]
+29.2 +25.3 80 +43 +43 опасность
перегрева
1008.9 1007.8 +31.7
21 18.10 Ю 4 10 км 9/4 360 м
[Sc Ac trans Ci sp]
+28.4 +25.0 82 +41 +41 опасность
перегрева
1011.1 1010.0
00 19.10 ЮЗ 4 10 км 9/4 360 м
[Sc Ci sp]
+28.0 +24.6 82 +40 +40 очень
душно
1009.7 1008.6
03 19.10 Ю 3 8000 м 9/6 330 м
[Sc Ci sp]
+28.0 +25.0 84 +40 +40 очень
душно
1008.5 1007.4
06 19.10 ЮЗ 2 8000 м 9/6 360 м
[Cu Sc Ci sp]
+25.9 +24.6 93 +37 +37 очень
душно
1010.4 1009.3 +25.7
09 19.10 З 2 10 км 9/5 360 м
[Cb cap Ac cuf Ci sp]
+29.2 +25.0 78 +42 +45 опасность
перегрева
1011.9 1010.8
12 19.10 ЮЗ 4 10 км 9/5 360 м
[Cb cap Ac trans Ci sp]
+30.7 +25.2 73 +45 +49 опасность
перегрева
1010.2 1009.1
15 19.10 Ю 5 10 км 9/4 360 м
[Cb cap Ac trans Ci sp]
+30.5 +25.6 75 +45 +46 опасность
перегрева
1007.5 1006.4
18 19.10 Ю 4 10 км гроза без осадков 9/4 360 м
[Cb cap Ac cuf Ci sp]
+28.9 +24.8 79 +41 +41 опасность
перегрева
1007.7 1006.6 +31.0
21 19.10 Ю 3 10 км {гроза} 9/3 360 м
[Cb cap Ac trans Ci sp]
+28.5 +25.0 81 +41 +41 опасность
перегрева
1009.9 1008.8
00 20.10 ЮЗ 3 8000 м {гроза} 9/4 360 м
[Sc Ci sp]
+28.1 +25.0 83 +40 +40 очень
душно
1009.3 1008.2
03 20.10 СЗ 1 8000 м 9/4 360 м
[Sc Ac trans Ci sp]
+26.5 +25.1 92 +38 +38 очень
душно
1008.0 1006.9
06 20.10 СЗ 1 8000 м 9/4 330 м
[Cu Sc Ci sp]
+25.5 +24.8 96 +36 +36 очень
душно
1009.1 1008.0 +25.4
09 20.10 ЮЗ 3 10 км 8/4 360 м
[Cu Sc Ci sp]
+29.5 +25.7 80 +44 +48 опасность
перегрева
1011.1 1010.0
12 20.10 Ю 5 10 км 9/5 360 м
[Cu Sc Ci sp]
+31.4 +26.1 74 +47 +52 опасность
перегрева
1009.5 1008.4
15 20.10 Ю 6 10 км 9/5 360 м
[Cb cap Ci sp]
+31.1 +25.4 72 +45 +47 опасность
перегрева
1007.2 1006.1
18 20.10 ЮЗ 5 10 км 9/8 360 м
[Cb cap Ac trans Ci sp]
+29.2 +25.1 79 +42 +42 опасность
перегрева
1008.1 1007.0 +31.5
21 20.10 ЮЗ 4 10 км 8/4 360 м
[Sc Ci sp]
+28.7 +25.2 81 +42 +42 опасность
перегрева
1009.8 1008.7
00 21.10 ЮЗ 4 10 км 8/4 360 м
[Sc Ci sp]
+28.5 +25.7 85 +42 +42 опасность
перегрева
1009.5 1008.4
03 21.10 ЮЗ 4 8000 м гроза без осадков 9/5 330 м
[Cb cap Ci sp]
+28.3 +25.5 85 +42 +42 опасность
перегрева
1008.1 1007.0
06 21.10 штиль 0 8000 м гроза без осадков {дождь} 9/6 330 м
[Cb cap Ac As Ci sp]
+26.1 +24.5 91 +37 +37 очень
душно
1009.8 1008.7 +25.6 4
09 21.10 Ю 4 8000 м {гроза} 9/5 330 м
[Cu Sc Ac trans Ci sp]
+29.4 +26.5 84 +45 +47 опасность
перегрева
1010.8 1009.7
12 21.10 Ю 4 10 км {гроза} 9/6 400 м
[Cu Sc Ci sp]
+30.8 +27.7 84 +50 +55 опасность
перегрева
1009.4 1008.3

 

Местоположение метеостанции Cotonou (Бенин): широта 6.35 долгота 2.38 высота над уровнем моря 9 м.

В архиве по умолчанию представлена погода в Cotonou за последнюю неделю. Архивные данные за месяц целиком и за предыдущие месяцы, начиная с января 2011 года, Вы можете получить, выбрав интересующий диапазон дат из раскрывающегося списка и нажав кнопку "Ввод!".


*Определитесь, кто Вы:
робот инопланетянин человек

Внимание! Время в таблицах - всемирное. Для получения местного времени необходимо прибавить поправку, которая в Cotonou равна 1 ч.

Смотрите также архив погоды в соседних городах и на ближайших метеорологических станциях:

Погода в Bohicon (Бенин) (97 км)
Погода в Tabligbo (Того) (101 км)
Погода в Lagos (Нигерия) (108 км)
Погода в Lagos Oshodi (Нигерия) (112 км)
Погода в Lome (Того) (127 км)
Погода в Akatsi (Гана) (177 км)
Погода в Ijebu Ode (Нигерия) (179 км)
Погода в Save (Бенин) (187 км)
Погода в Atakpame (Того) (195 км)
Погода в Ada (Гана) (204 км)

Пояснения к столбцам:

Ветер - указаны скорость ветра в м/с - средняя за 10 мин, порывы в срок и между сроками (в фигурных скобках) и направление, откуда дует ветер: С - северный, СВ - северо-восточный, В - восточный, ЮВ - юго-восточный, Ю - южный, ЮЗ - юго-западный, З - западный, СЗ - северо-западный.
Видимость - горизонтальная дальность видимости в метрах или километрах. При видимости от 1 до 10 км при отсутствии осадков обычно наблюдается дымка, при ухудшении видимости до 1 км и менее - туман. В сухую погоду видимость может ухудшаться дымом, пылью или мглою.
Явления - указаны атмосферные явления, наблюдавшиеся в срок или в последний час перед сроком; фигурными скобками обозначены явления, наблюдавшиеся между сроками (за 1-3 часа до срока); квадратными скобками обозначены град или гололедные отложения с указанием их диаметра в мм.
Облачность - указаны через наклонную черту общая и нижняя облачность в баллах и высота нижней границы облаков в метрах; квадратными скобками обозначены формы облаков: Ci - перистые, Cs - перисто-слоистые, Cc - перисто-кучевые, Ac - высококучевые, As - высокослоистые, Sc - слоисто-кучевые, Ns - слоисто-дождевые, Cu - кучевые, Cb - кучево-дождевые. Подробнее классификацию облаков см. в Атласе облаков (PDF).
T - Температура воздуха - температура, измеренная на высоте 2 м над землей.
Td - Температура точки росы - температура, при понижении до которой содержащийся в воздухе водяной пар достигнет насыщения.
f - Относительная влажность воздуха - влажноcть воздуха, измеренная на высоте 2 м над землей.
Te - Эффективная температура - температура, которую ощущает одетый по сезону человек в тени. Характеристика душности погоды. При расчете учитывается влияние влажности воздуха и скорости ветра на теплоощущения человека.
Tes - Эффективная температура на солнце - температура, которую ощущает человек, с поправкой на солнечный нагрев. Характеристика знойности погоды. Зависит от высоты солнца над горизонтом, облачности и скорости ветра. Ночью, в пасмурную погоду, а также при ветре 12 м/с и более поправка равна нулю.
P - Атмосферное давление - приведенное к уровню моря атмосферное давление.
Po - Атмосферное давление - измеренное на уровне метеостанции атмосферное давление.
Tmin - Минимальная температура - минимум температуры воздуха на высоте 2 м над землей.
Tmax - Максимальная температура - максимум температуры воздуха на высоте 2 м над землей.
R - Количество осадков - Количество выпавших осадков за период времени, мм. При наведении курсора мыши на число - период времени, за который выпало указанное количество осадков.
R24 - Количество осадков - Количество выпавших осадков за 24 часа, мм.
S - Снежный покров - Высота снежного покрова, см. При наведении курсора мыши на число - состояние снежного покрова и степень покрытия местности в баллах.